Location: Tel Aviv
(32.0670°N, 34.7670°E)
Time: 07:26:20
(UTC+03:00)

UWE-3 - Visible Passes

Search period start: 29 March 2023 00:00
Search period end: 08 April 2023 00:00
Orbit: 579 x 670 km, 97.7° (Epoch: 28 March)

Date Brightness Start Highest point End Pass type
(mag) Time Alt. Az. Time Alt. Az. Time Alt. Az.
29 Mar ? 03:41:36 10° N 03:41:44 11° N 03:41:44 11° N visible
30 Mar ? 04:00:32 10° N 04:00:48 11° N 04:00:48 11° N visible
31 Mar ? 04:19:41 10° NNW 04:19:51 11° NNW 04:19:51 11° NNW visible
02 Apr ? 03:20:24 10° NNE 03:20:39 11° NNE 03:20:39 11° NNE visible
03 Apr ? 03:39:03 10° N 03:39:39 14° N 03:39:39 14° N visible
04 Apr ? 03:57:54 10° N 03:58:40 15° N 03:58:40 15° N visible
05 Apr ? 04:17:00 10° NNW 04:17:39 13° NNW 04:17:39 13° NNW visible
06 Apr ? 02:59:20 10° NNE 02:59:22 10° NNE 02:59:22 10° NNE visible
06 Apr ? 04:36:27 10° NNW 04:36:38 11° NNW 04:36:38 11° NNW visible
07 Apr ? 03:17:41 10° NNE 03:18:19 14° NNE 03:18:19 14° NNE visible
